ARIANE 2 DEB, 42482

Orbit data source: Space-Track

ARIANE 2 DEB, 42482 is space debris in HEO originally from a launch on Fri, 27 Jan 1989 UTC launched from the French Guiana (FRGUI). Debris objects in space refer to the collection of defunct objects orbiting the Earth. Examples of debris include non-operational satellites, rocket bodies, and fragments generated from explosions, collisions, or faulty payload assembly.

Loading next visibility...
Identifier
42482, 1989-006CJ
Orbit
HEO
Country
Flag of FRFR
Related business
Manufacturer
EADS/LV
Mission
Spacecraft
Bus & Motor
Unknown
Mass
Unknown
Launch date (UTC)
1989-01-27 (38 years ago)
Launch vehicle
Unknown
Launch site
French Guiana (FRGUI)
Object type
Payload
Rocket body
Debris
Shape & HBR
Unknown shape, 0.2 m
Radar Cross Section
Medium (>0.1 m² and <1 m²)

Expand to show TLE details & history
Last TLE update: 18 hours ago

TLE from 18 hours ago
0 ARIANE 2 DEB
1 42482U 89006CJ  26257.94222132  .00001986  00000-0  13838-1 0  9998
2 42482  10.3321  29.5309 7103754 123.9210 324.2921  2.37008387 47063
Epoch: 2026-09-14T22:36Z
TLE epoch observation values (Epoch: 2026-09-14T22:36:47.922Z)
Latitude
-0.00003°
Longitude
56.50659°
Altitude
13,079.714 km
Speed
4.919 km/s
True Right ascension
01h 58m 29s
True Declination
0° 00' 00"
Sunlit
Object was in daylight at epoch
Visualization orbit readout
Latitude
Unknown
Longitude
Unknown
Altitude
Unknown
Speed
Unknown
Apparent Right ascension
Unknown
Apparent Declination
Unknown
Sunlit
N/A
Visualization observer readout
Local Sidereal Time
09:25:22
Azimuth
Unknown
Elevation
Unknown
Doppler factor
Unknown
Orbital elements
Apogee altitude
34,273.391 km
Perigee altitude
505.546 km
Semi-major axis
23,767.606 km
Eccentricity
0.71038
Inclination
10.3321°
RAAN
29.5309°
Arg. of periapsis
123.921°
True anomaly
236.38372°
Mean anomaly
324.2921°
Eccentric anomaly
284.97239°
Mean motion
0.59233 °/min
Orbital period
607.77 mins
BSTAR
0.013838
Loading maneuver chart data...
Computing Atmospheric mass density...
Loading historical data...
Loading historical data...
Loading historical data...
Loading historical data...
Loading historical data...
Loading historical data...
Loading historical data...

Documentation

Showing up to 5 results
|